Date String (YYYY-MM-DD hh:mm:ss) UTC,Instrument flags,Ambient pressure (hPa),Sample flow (lpm),Bypass flow (lpm),Sample temperature (°C),Ambient temperature (°C),ASC tube jacket temperature (°C),LED temperature (°C),Box temperature (°C),Sample RH (%),Span deviation,Mass concentration (μg/m³),Mass concentration (μg/m³),Mass concentration (μg/m³)
DateTimeUTC,F1_M11,P_M11,Q1_M11,Q2_M11,T1_M11,T2_M11,T3_M11,T4_M11,T5_M11,U1_M11,ZSPAN_M11,X0_M11,X2_M11,X1_M11
2022-12-23 22:00:00,,0830.7,5.02,0.00,23.0,21.9,00.0,31.7,24.8,03.5,0003.5,0017.52,0011.06,0010.52
2022-12-23 22:01:00,,0830.7,5.01,0.00,23.0,21.7,00.0,31.7,24.8,03.5,0003.3,0017.53,0011.14,0010.63
2022-12-23 22:02:00,,0830.7,4.98,0.00,23.0,21.7,00.0,31.7,24.8,03.5,0002.8,0016.90,0011.20,0010.67
2022-12-23 22:03:00,,0830.8,4.97,0.00,22.9,21.6,00.0,31.7,24.8,03.5,0002.5,0016.94,0011.26,0010.73
2022-12-23 22:04:00,,0830.7,5.02,0.00,22.9,21.5,00.0,31.7,24.8,03.5,0002.2,0016.81,0011.31,0010.80
2022-12-23 22:05:00,,0830.7,5.01,0.00,22.9,21.4,00.0,31.7,24.7,03.5,0002.1,0016.79,0011.36,0010.85
2022-12-23 22:06:00,,0830.8,5.02,0.00,22.9,21.4,00.0,31.7,24.7,03.5,0002.2,0016.77,0011.41,0010.89
2022-12-23 22:07:00,,0830.8,4.97,0.00,22.9,21.3,00.0,31.7,24.7,03.5,0002.4,0016.87,0011.46,0010.92
2022-12-23 22:08:00,,0830.7,4.99,0.00,22.9,21.3,00.0,31.7,24.7,03.5,0002.0,0017.74,0011.49,0010.93
2022-12-23 22:09:00,,0830.8,5.02,0.00,22.9,21.2,00.0,31.7,24.6,03.5,0001.8,0017.91,0011.55,0010.95
2022-12-23 22:10:00,,0830.8,5.02,0.00,22.8,21.2,00.0,31.7,24.6,03.5,0001.7,0017.99,0011.58,0010.98
2022-12-23 22:11:00,,0830.7,4.99,0.00,22.8,21.2,00.0,31.7,24.6,03.5,0001.6,0017.98,0011.59,0011.01
2022-12-23 22:12:00,,0830.6,4.98,0.00,22.8,21.2,00.0,31.7,24.6,03.5,0002.1,0018.17,0011.66,0011.04
2022-12-23 22:13:00,,0830.6,4.99,0.00,22.8,21.2,00.0,31.7,24.6,03.5,0001.8,0019.23,0011.71,0011.07
2022-12-23 22:14:00,,0830.6,5.01,0.00,22.8,21.3,00.0,31.6,24.6,03.6,0001.7,0019.86,0011.74,0011.09
2022-12-23 22:15:00,,0830.7,5.02,0.00,22.9,21.9,00.0,31.6,24.8,03.6,0002.1,0020.04,0011.78,0011.12
2022-12-23 22:16:00,,0830.7,4.96,0.00,22.9,22.5,00.0,31.6,24.9,03.6,0002.0,0020.36,0011.85,0011.16
2022-12-23 22:17:00,,0830.6,5.03,0.00,23.0,22.4,00.0,31.6,24.9,03.5,0001.9,0020.53,0011.88,0011.19
2022-12-23 22:18:00,,0830.6,4.99,0.00,23.0,22.1,00.0,31.7,24.8,03.6,0001.7,0020.77,0011.94,0011.21
2022-12-23 22:19:00,,0830.6,4.96,0.00,23.0,21.9,00.0,31.7,24.8,03.6,0002.2,0020.12,0011.96,0011.25
2022-12-23 22:20:00,,0830.6,5.02,0.00,22.9,21.7,00.0,31.7,24.8,03.6,0002.7,0020.04,0011.98,0011.29
2022-12-23 22:21:00,,0830.6,5.04,0.00,22.9,21.6,00.0,31.7,24.7,03.6,0002.8,0020.11,0011.89,0011.20
2022-12-23 22:22:00,,0830.6,4.98,0.00,22.9,21.5,00.0,31.7,24.7,03.6,0002.3,0020.18,0011.77,0011.06
2022-12-23 22:23:00,,0830.6,4.98,0.00,22.9,21.4,00.0,31.7,24.6,03.6,0001.6,0020.46,0011.59,0010.87
2022-12-23 22:24:00,,0830.6,5.02,0.00,22.9,21.3,00.0,31.7,24.6,03.6,0001.8,0020.04,0011.39,0010.66
2022-12-23 22:25:00,,0830.5,5.03,0.00,22.8,21.2,00.0,31.7,24.6,03.6,0001.9,0018.96,0011.20,0010.47
2022-12-23 22:26:00,,0830.5,4.96,0.00,22.8,21.1,00.0,31.7,24.5,03.6,0002.1,0018.52,0011.00,0010.28
2022-12-23 22:27:00,,0830.5,4.97,0.00,22.8,21.1,00.0,31.7,24.5,03.6,0002.2,0017.93,0010.77,0010.06
2022-12-23 22:28:00,,0830.6,5.01,0.00,22.8,21.1,00.0,31.6,24.5,03.6,0002.4,0017.48,0010.57,0009.86
2022-12-23 22:29:00,,0830.4,5.02,0.00,22.7,21.0,00.0,31.6,24.5,03.6,0002.8,0017.00,0010.35,0009.67
2022-12-23 22:30:00,,0830.4,5.01,0.00,22.7,20.9,00.0,31.6,24.4,03.6,0002.7,0016.64,0010.15,0009.46
2022-12-23 22:31:00,,0830.5,4.96,0.00,22.7,20.8,00.0,31.6,24.3,03.6,0002.4,0016.92,0009.94,0009.20
2022-12-23 22:32:00,,0830.6,4.99,0.00,22.7,21.2,00.0,31.5,24.4,03.5,0002.6,0017.23,0009.76,0009.02
2022-12-23 22:33:00,,0830.6,5.03,0.00,22.8,22.0,00.0,31.5,24.6,03.6,0002.8,0017.30,0009.66,0008.94
2022-12-23 22:34:00,,0830.6,4.99,0.00,22.8,22.3,00.0,31.5,24.7,03.6,0002.8,0016.63,0009.57,0008.87
2022-12-23 22:35:00,,0830.6,4.97,0.00,22.8,22.0,00.0,31.6,24.7,03.6,0002.3,0016.10,0009.51,0008.83
2022-12-23 22:36:00,,0830.6,5.03,0.00,22.8,21.5,00.0,31.6,24.5,03.6,0002.3,0017.16,0009.51,0008.79
2022-12-23 22:37:00,,0830.6,5.02,0.00,22.7,21.2,00.0,31.6,24.4,03.7,0002.4,0017.42,0009.47,0008.74
2022-12-23 22:38:00,,0830.5,4.96,0.00,22.7,20.9,00.0,31.6,24.3,03.7,0002.4,0017.67,0009.42,0008.69
2022-12-23 22:39:00,,0830.6,5.00,0.00,22.6,20.7,00.0,31.5,24.2,03.6,0002.4,0018.56,0009.37,0008.63
2022-12-23 22:40:00,,0830.5,5.03,0.00,22.5,20.4,00.0,31.5,24.1,03.6,0002.3,0018.41,0009.27,0008.55
2022-12-23 22:41:00,,0830.5,5.02,0.00,22.5,20.2,00.0,31.5,24.0,03.6,0002.2,0018.25,0009.17,0008.47
2022-12-23 22:42:00,,0830.4,4.98,0.00,22.4,20.2,00.0,31.5,24.0,03.6,0002.2,0017.68,0009.09,0008.43
2022-12-23 22:43:00,,0830.4,4.97,0.00,22.4,20.3,00.0,31.4,24.0,03.6,0002.1,0017.24,0009.11,0008.42
2022-12-23 22:44:00,,0830.5,5.03,0.00,22.4,20.4,00.0,31.4,24.0,03.6,0002.2,0016.68,0009.04,0008.37
2022-12-23 22:45:00,,0830.4,5.02,0.00,22.4,21.2,00.0,31.3,24.2,03.6,0002.6,0016.63,0008.98,0008.33
2022-12-23 22:46:00,,0830.4,4.98,0.00,22.5,22.2,00.0,31.3,24.4,03.6,0002.8,0016.60,0008.93,0008.28
2022-12-23 22:47:00,,0830.4,5.00,0.00,22.6,22.3,00.0,31.4,24.5,03.6,0003.0,0015.42,0008.83,0008.21
2022-12-23 22:48:00,,0830.5,5.03,0.00,22.6,22.0,00.0,31.4,24.5,03.6,0002.8,0015.09,0008.75,0008.15
2022-12-23 22:49:00,,0830.4,4.95,0.00,22.6,21.8,00.0,31.4,24.4,03.6,0002.5,0014.78,0008.71,0008.07
2022-12-23 22:50:00,,0830.3,5.02,0.00,22.6,21.5,00.0,31.4,24.3,03.6,0002.4,0014.46,0008.65,0008.02
2022-12-23 22:51:00,,0830.4,5.02,0.00,22.5,21.2,00.0,31.4,24.2,03.6,0002.1,0014.51,0008.64,0008.00
2022-12-23 22:52:00,,0830.5,5.01,0.00,22.5,21.0,00.0,31.4,24.2,03.6,0002.1,0014.59,0008.67,0008.00
2022-12-23 22:53:00,,0830.5,4.97,0.00,22.5,21.0,00.0,31.4,24.2,03.6,0002.1,0014.48,0008.72,0008.04
2022-12-23 22:54:00,,0830.5,4.97,0.00,22.5,20.9,00.0,31.4,24.2,03.6,0001.9,0014.67,0008.78,0008.12
2022-12-23 22:55:00,,0830.4,5.02,0.00,22.5,20.9,00.0,31.4,24.2,03.6,0001.7,0015.75,0008.91,0008.21
2022-12-23 22:56:00,,0830.3,5.02,0.00,22.4,20.9,00.0,31.4,24.2,03.6,0001.5,0016.66,0009.01,0008.27
2022-12-23 22:57:00,,0830.4,5.00,0.00,22.4,20.9,00.0,31.4,24.2,03.6,0001.5,0016.64,0009.11,0008.35
2022-12-23 22:58:00,,0830.4,4.97,0.00,22.4,20.8,00.0,31.3,24.1,03.6,0002.1,0016.72,0009.20,0008.42
2022-12-23 22:59:00,,0830.4,4.99,0.00,22.4,20.8,00.0,31.3,24.1,03.6,0001.9,0016.81,0009.27,0008.50
